Location: Greenspot (historical)
(34.0858°N, 117.1109°W)
Time: 06:44:51
(UTC+00:00)

CBERS-1 - Visible Passes

Search period start: 16 July 2024 00:00
Search period end: 26 July 2024 00:00
Orbit: 768 x 773 km, 98.8° (Epoch: 15 July)

Date Brightness Start Highest point End Pass type
(mag) Time Alt. Az. Time Alt. Az. Time Alt. Az.
16 Jul 6.5 11:16:19 10° NE 11:19:46 18° E 11:23:11 10° SE visible
17 Jul 4.2 12:18:47 10° NNE 12:23:55 83° ESE 12:29:01 10° SSW visible
18 Jul 5.5 11:44:03 10° NNE 11:48:43 35° E 11:53:21 10° SSE visible
19 Jul 6.6 11:10:25 10° ENE 11:13:21 15° E 11:16:16 10° SE visible
20 Jul 4.4 12:12:27 10° NNE 12:17:34 70° ESE 12:22:37 10° S visible
21 Jul 5.8 11:37:51 10° NE 11:42:19 30° E 11:46:45 10° SSE visible
22 Jul 6.7 11:04:41 10° ENE 11:06:54 13° E 11:09:07 10° ESE visible
23 Jul 4.6 12:06:07 10° NNE 12:11:11 60° ESE 12:16:12 10° S visible
24 Jul 6.0 11:31:42 10° NE 11:35:54 26° E 11:40:05 10° SSE visible
25 Jul 6.9 10:59:31 10° E 11:00:27 10° E 11:01:23 10° ESE visible
